�������l�o���
Date,Time,MP-1(��Sv/h),MP-2(��Sv/h),MP-3(��Sv/h),MP-4(��Sv/h),MP-5(��Sv/h),MP-6(��Sv/h),MP-7(��Sv/h),MP-8(��Sv/h),����,����(m/s),���J
2019/08/17,00:00,0.776,1.094,0.764,1.355,0.999,0.439,0.761,0.715,���쐼,3.5,��
2019/08/17,00:10,0.775,1.093,0.761,1.356,1.000,0.438,0.761,0.716,���쐼,2.6,��
2019/08/17,00:20,0.776,1.096,0.764,1.355,1.001,0.438,0.760,0.715,��,3.1,��
2019/08/17,00:30,0.776,1.091,0.762,1.358,1.003,0.436,0.761,0.714,��,4.0,��
2019/08/17,00:40,0.775,1.093,0.761,1.356,1.001,0.439,0.760,0.715,��,4.5,��
2019/08/17,00:50,0.776,1.096,0.762,1.354,1.000,0.437,0.760,0.713,��,3.7,��
2019/08/17,01:00,0.775,1.092,0.761,1.356,1.001,0.438,0.760,0.716,��,3.0,��
2019/08/17,01:10,0.776,1.093,0.764,1.355,1.001,0.438,0.759,0.715,��,2.3,��
2019/08/17,01:20,0.777,1.091,0.761,1.356,0.999,0.439,0.759,0.716,�쐼,1.7,��
2019/08/17,01:30,0.777,1.092,0.765,1.356,1.001,0.437,0.760,0.714,�쐼,2.5,��
2019/08/17,01:40,0.778,1.096,0.761,1.357,1.000,0.436,0.761,0.714,���쐼,2.3,��
2019/08/17,01:50,0.776,1.094,0.763,1.356,0.998,0.437,0.759,0.714,��쐼,2.6,��
2019/08/17,02:00,0.775,1.094,0.763,1.356,0.999,0.437,0.759,0.714,��쐼,2.9,��
2019/08/17,02:10,0.776,1.093,0.762,1.356,1.000,0.438,0.760,0.716,�쐼,3.5,��
2019/08/17,02:20,0.774,1.094,0.761,1.354,1.000,0.435,0.759,0.716,���쐼,2.6,��
2019/08/17,02:30,0.775,1.093,0.764,1.354,1.000,0.437,0.758,0.715,�쐼,3.2,��
2019/08/17,02:40,0.776,1.095,0.763,1.356,0.999,0.438,0.761,0.715,�쐼,3.3,��
2019/08/17,02:50,0.776,1.091,0.763,1.358,0.998,0.439,0.760,0.715,�쐼,3.9,��
2019/08/17,03:00,0.775,1.092,0.763,1.357,1.000,0.438,0.761,0.715,�쐼,4.2,��
2019/08/17,03:10,0.777,1.090,0.762,1.356,1.000,0.438,0.759,0.716,���쐼,3.4,��
2019/08/17,03:20,0.777,1.093,0.762,1.353,1.000,0.436,0.760,0.715,�쐼,2.6,��
2019/08/17,03:30,0.775,1.094,0.762,1.356,0.999,0.437,0.761,0.714,���쐼,3.2,��
2019/08/17,03:40,0.776,1.094,0.762,1.355,1.002,0.437,0.761,0.716,�쐼,2.6,��
2019/08/17,03:50,0.777,1.094,0.762,1.354,0.997,0.437,0.761,0.715,�쐼,3.0,��
2019/08/17,04:00,0.775,1.090,0.762,1.358,1.000,0.436,0.761,0.715,�쐼,2.0,��
2019/08/17,04:10,0.776,1.094,0.764,1.356,0.996,0.437,0.758,0.714,���쐼,2.2,��
2019/08/17,04:20,0.775,1.091,0.764,1.355,0.999,0.437,0.760,0.718,�쐼,1.7,��
2019/08/17,04:30,0.775,1.090,0.761,1.356,0.998,0.438,0.759,0.716,�쐼,2.0,��
2019/08/17,04:40,0.776,1.094,0.762,1.356,0.998,0.437,0.759,0.712,��,2.9,��
2019/08/17,04:50,0.776,1.093,0.761,1.354,1.000,0.438,0.761,0.715,��쐼,2.9,��
2019/08/17,05:00,0.776,1.092,0.762,1.355,0.997,0.436,0.760,0.715,��쐼,2.0,��
2019/08/17,05:10,0.776,1.093,0.763,1.359,0.999,0.437,0.759,0.713,��쐼,2.3,��
2019/08/17,05:20,0.775,1.094,0.762,1.356,1.000,0.437,0.758,0.714,��,2.2,��
2019/08/17,05:30,0.776,1.090,0.763,1.356,0.998,0.437,0.760,0.714,��쐼,2.2,��
2019/08/17,05:40,0.778,1.094,0.763,1.355,0.997,0.438,0.759,0.715,��쐼,3.2,��
2019/08/17,05:50,0.776,1.092,0.762,1.355,0.997,0.437,0.758,0.715,�쐼,2.6,��
2019/08/17,06:00,0.776,1.094,0.764,1.354,0.999,0.436,0.760,0.714,���쐼,2.0,��
2019/08/17,06:10,0.775,1.094,0.763,1.357,0.997,0.438,0.759,0.715,���쐼,1.2,��
2019/08/17,06:20,0.778,1.095,0.762,1.358,0.998,0.437,0.759,0.714,��,0.9,��
2019/08/17,06:30,0.777,1.095,0.762,1.356,0.995,0.437,0.758,0.714,��,1.7,��
2019/08/17,06:40,0.777,1.093,0.764,1.355,0.996,0.438,0.761,0.716,���쐼,1.5,��
2019/08/17,06:50,0.777,1.093,0.763,1.356,0.999,0.438,0.761,0.714,��,1.5,��
2019/08/17,07:00,0.778,1.094,0.764,1.356,0.999,0.435,0.761,0.719,�쓌,3.6,��
2019/08/17,07:10,0.777,1.093,0.761,1.354,0.999,0.438,0.759,0.716,��쓌,3.0,��
2019/08/17,07:20,0.775,1.091,0.763,1.353,0.998,0.436,0.762,0.715,��쓌,3.5,��
2019/08/17,07:30,0.777,1.094,0.761,1.357,0.999,0.437,0.761,0.714,��쓌,4.6,��
2019/08/17,07:40,0.777,1.092,0.764,1.355,0.997,0.436,0.760,0.715,��,3.7,��
2019/08/17,07:50,0.777,1.091,0.762,1.355,0.999,0.436,0.760,0.713,��쓌,2.9,��
2019/08/17,08:00,0.777,1.092,0.764,1.356,0.997,0.436,0.761,0.716,��,2.0,��
2019/08/17,08:10,0.777,1.094,0.761,1.355,0.999,0.436,0.761,0.713,��,2.2,��
2019/08/17,08:20,0.779,1.094,0.763,1.358,0.999,0.436,0.760,0.714,��,1.5,��
2019/08/17,08:30,0.776,1.093,0.761,1.359,0.999,0.438,0.759,0.713,��,3.3,��
2019/08/17,08:40,0.779,1.094,0.761,1.359,1.001,0.436,0.763,0.714,��,2.9,��
2019/08/17,08:50,0.778,1.095,0.763,1.359,1.000,0.436,0.764,0.712,��,4.0,��
2019/08/17,09:00,0.777,1.096,0.760,1.358,1.000,0.437,0.760,0.713,��,3.5,��
2019/08/17,09:10,0.779,1.096,0.764,1.357,0.999,0.438,0.762,0.715,��,3.4,��
2019/08/17,09:20,0.779,1.098,0.764,1.360,1.002,0.436,0.759,0.715,���k��,2.6,��
2019/08/17,09:30,0.778,1.099,0.765,1.360,1.002,0.437,0.760,0.715,���쐼,2.9,��
2019/08/17,09:40,0.780,1.101,0.765,1.360,1.004,0.436,0.760,0.713,���k��,2.3,��
2019/08/17,09:50,0.781,1.099,0.765,1.361,1.005,0.436,0.762,0.715,��,1.7,��
2019/08/17,10:00,0.780,1.100,0.767,1.362,1.004,0.436,0.762,0.715,���k��,2.2,��
2019/08/17,10:10,0.781,1.103,0.764,1.361,1.006,0.437,0.762,0.714,���쐼,3.7,��
2019/08/17,10:20,0.781,1.102,0.766,1.362,1.007,0.437,0.762,0.716,���쐼,2.9,��
2019/08/17,10:30,0.782,1.102,0.766,1.362,1.008,0.437,0.762,0.716,��,3.4,��
2019/08/17,10:40,0.783,1.102,0.769,1.363,1.009,0.436,0.763,0.714,��,4.4,��
2019/08/17,10:50,0.785,1.107,0.766,1.362,1.008,0.436,0.762,0.714,���쐼,4.5,��
2019/08/17,11:00,0.784,1.105,0.767,1.366,1.009,0.437,0.761,0.714,��,4.1,��
2019/08/17,11:10,0.784,1.107,0.768,1.360,1.009,0.437,0.763,0.716,���쐼,4.0,��
2019/08/17,11:20,0.784,1.107,0.770,1.364,1.009,0.438,0.762,0.717,���쐼,3.9,��
2019/08/17,11:30,0.785,1.106,0.767,1.360,1.011,0.438,0.763,0.718,���쐼,4.0,��
2019/08/17,11:40,0.783,1.109,0.769,1.361,1.010,0.436,0.763,0.716,��,4.9,��
2019/08/17,11:50,0.785,1.110,0.768,1.361,1.011,0.437,0.763,0.717,��,5.1,��
2019/08/17,12:00,0.785,1.108,0.770,1.362,1.010,0.437,0.763,0.719,���쐼,3.5,��
2019/08/17,12:10,0.784,1.109,0.770,1.363,1.013,0.438,0.763,0.718,���쐼,4.9,��
2019/08/17,12:20,0.786,1.108,0.769,1.362,1.012,0.436,0.764,0.719,���쐼,4.6,��
2019/08/17,12:30,0.786,1.110,0.772,1.365,1.013,0.439,0.763,0.720,���쐼,5.1,��
2019/08/17,12:40,0.785,1.110,0.770,1.365,1.014,0.437,0.766,0.719,��,4.9,��
2019/08/17,12:50,0.787,1.114,0.771,1.368,1.013,0.437,0.766,0.719,��,3.6,��
2019/08/17,13:00,0.786,1.110,0.771,1.367,1.016,0.437,0.765,0.716,���k��,3.9,��
2019/08/17,13:10,0.787,1.112,0.772,1.370,1.015,0.438,0.766,0.719,���k��,4.6,��
2019/08/17,13:20,0.787,1.111,0.773,1.370,1.013,0.437,0.766,0.718,���k��,4.4,��
2019/08/17,13:30,0.786,1.112,0.772,1.370,1.015,0.437,0.766,0.719,���k��,5.9,��
2019/08/17,13:40,0.787,1.110,0.770,1.370,1.013,0.438,0.767,0.719,�k,3.1,��
2019/08/17,13:50,0.787,1.111,0.772,1.371,1.015,0.438,0.767,0.719,�k,1.2,��
2019/08/17,14:00,0.786,1.111,0.771,1.369,1.018,0.437,0.766,0.719,���k��,4.3,��
2019/08/17,14:10,0.787,1.109,0.771,1.368,1.016,0.437,0.765,0.717,���k��,3.7,��
2019/08/17,14:20,0.785,1.110,0.769,1.369,1.015,0.437,0.765,0.717,��,3.1,��
2019/08/17,14:30,0.784,1.109,0.769,1.370,1.015,0.436,0.763,0.715,���k��,4.1,��
2019/08/17,14:40,0.786,1.108,0.769,1.369,1.012,0.437,0.764,0.716,��,3.1,��
2019/08/17,14:50,0.783,1.109,0.769,1.372,1.015,0.436,0.762,0.715,���쓌,2.6,��
2019/08/17,15:00,0.783,1.108,0.767,1.366,1.012,0.433,0.765,0.717,�쓌,2.9,��
2019/08/17,15:10,0.786,1.111,0.769,1.371,1.014,0.435,0.763,0.715,�쓌,2.6,��
2019/08/17,15:20,0.781,1.110,0.767,1.368,1.013,0.435,0.764,0.715,�쓌,2.9,��
2019/08/17,15:30,0.782,1.110,0.768,1.370,1.013,0.434,0.765,0.715,���쓌,2.2,��
2019/08/17,15:40,0.783,1.109,0.769,1.370,1.013,0.434,0.764,0.716,���쓌,2.5,��
2019/08/17,15:50,0.782,1.110,0.767,1.371,1.013,0.433,0.762,0.714,�쓌,2.8,��
2019/08/17,16:00,0.782,1.111,0.767,1.372,1.014,0.435,0.763,0.714,�쓌,2.5,��
2019/08/17,16:10,0.783,1.110,0.767,1.369,1.015,0.433,0.762,0.715,�쓌,3.8,��
2019/08/17,16:20,0.783,1.108,0.767,1.370,1.014,0.435,0.762,0.714,�쓌,2.6,��
2019/08/17,16:30,0.783,1.109,0.771,1.371,1.013,0.433,0.760,0.715,�쓌,2.2,��
2019/08/17,16:40,0.782,1.110,0.768,1.370,1.013,0.433,0.764,0.716,�쓌,1.7,��
2019/08/17,16:50,0.782,1.110,0.765,1.369,1.012,0.433,0.763,0.715,�쓌,1.2,��
2019/08/17,17:00,0.782,1.110,0.768,1.368,1.013,0.434,0.762,0.716,��,0.9,��
2019/08/17,17:10,0.782,1.107,0.766,1.365,1.013,0.434,0.761,0.716,��쓌,0.6,��
2019/08/17,17:20,0.782,1.108,0.767,1.369,1.013,0.433,0.761,0.715,���쓌,1.2,��
2019/08/17,17:30,0.780,1.108,0.767,1.369,1.013,0.433,0.760,0.715,�쓌,0.9,��
2019/08/17,17:40,0.781,1.108,0.767,1.367,1.012,0.434,0.761,0.715,�쓌,0.8,��
2019/08/17,17:50,0.783,1.108,0.766,1.368,1.014,0.433,0.761,0.713,��,1.2,��
2019/08/17,18:00,0.781,1.132,0.768,1.368,1.012,0.434,0.760,0.717,��,1.5,��
2019/08/17,18:10,0.781,1.108,0.768,1.369,1.014,0.433,0.762,0.715,��쓌,2.6,��
2019/08/17,18:20,0.780,1.108,0.767,1.369,1.012,0.435,0.762,0.714,��쓌,2.3,��
2019/08/17,18:30,0.781,1.109,0.768,1.367,1.013,0.433,0.763,0.715,��쓌,3.2,��
2019/08/17,18:40,0.782,1.109,0.769,1.369,1.011,0.434,0.761,0.716,��쓌,2.6,��
2019/08/17,18:50,0.782,1.107,0.768,1.369,1.010,0.434,0.761,0.715,��쓌,2.9,��
2019/08/17,19:00,0.782,1.109,0.769,1.368,1.010,0.434,0.760,0.715,��쓌,1.9,��
2019/08/17,19:10,0.785,1.111,0.769,1.370,1.010,0.435,0.761,0.716,��쓌,2.0,��
2019/08/17,19:20,0.783,1.110,0.768,1.368,1.010,0.434,0.762,0.717,��쐼,1.7,��
2019/08/17,19:30,0.784,1.108,0.768,1.369,1.014,0.434,0.762,0.716,�쐼,1.5,��
2019/08/17,19:40,0.783,1.108,0.767,1.371,1.011,0.434,0.762,0.715,���쐼,1.7,��
2019/08/17,19:50,0.783,1.106,0.767,1.368,1.013,0.435,0.764,0.717,���k��,2.0,��
2019/08/17,20:00,0.784,1.110,0.768,1.369,1.016,0.434,0.760,0.716,�k��,2.3,��
2019/08/17,20:10,0.785,1.110,0.769,1.367,1.011,0.435,0.763,0.717,�k��,2.0,��
2019/08/17,20:20,0.785,1.108,0.768,1.370,1.012,0.437,0.762,0.719,�k��,1.4,��
2019/08/17,20:30,0.785,1.110,0.773,1.371,1.012,0.435,0.761,0.718,�k��,2.5,��
2019/08/17,20:40,0.783,1.110,0.769,1.369,1.014,0.436,0.764,0.719,�k��,2.3,��
2019/08/17,20:50,0.784,1.110,0.771,1.370,1.013,0.436,0.763,0.717,�k��,3.9,��
2019/08/17,21:00,0.784,1.110,0.769,1.371,1.012,0.437,0.763,0.717,�k��,3.7,��
2019/08/17,21:10,0.783,1.108,0.769,1.371,1.014,0.436,0.762,0.718,�k��,3.3,��
2019/08/17,21:20,0.782,1.110,0.770,1.371,1.011,0.436,0.764,0.718,�k�k��,3.9,��
2019/08/17,21:30,0.784,1.110,0.769,1.370,1.013,0.437,0.764,0.716,�k��,3.6,��
2019/08/17,21:40,0.785,1.110,0.770,1.370,1.014,0.436,0.763,0.717,�k��,3.7,��
2019/08/17,21:50,0.784,1.110,0.770,1.370,1.013,0.437,0.764,0.716,�k��,4.5,��
2019/08/17,22:00,0.782,1.113,0.771,1.372,1.014,0.437,0.763,0.717,�k��,5.2,��
2019/08/17,22:10,0.784,1.108,0.769,1.373,1.013,0.437,0.763,0.716,�k��,4.7,��
2019/08/17,22:20,0.783,1.111,0.770,1.372,1.015,0.437,0.765,0.717,�k��,4.5,��
2019/08/17,22:30,0.783,1.109,0.770,1.370,1.013,0.436,0.764,0.715,�k��,4.8,��
2019/08/17,22:40,0.785,1.109,0.771,1.371,1.015,0.436,0.763,0.717,�k��,5.2,��
2019/08/17,22:50,0.785,1.110,0.770,1.370,1.013,0.438,0.763,0.717,�k��,4.9,��
2019/08/17,23:00,0.781,1.110,0.769,1.373,1.014,0.437,0.762,0.716,�k��,4.7,��
2019/08/17,23:10,0.784,1.108,0.769,1.369,1.013,0.437,0.763,0.718,�k��,4.6,��
2019/08/17,23:20,0.782,1.108,0.770,1.370,1.012,0.436,0.763,0.717,�k��,5.6,��
2019/08/17,23:30,0.784,1.107,0.768,1.369,1.011,0.434,0.761,0.718,�k��,5.7,��
2019/08/17,23:40,0.783,1.108,0.769,1.369,1.011,0.437,0.762,0.716,�k��,5.5,��
2019/08/17,23:50,0.782,1.110,0.771,1.370,1.011,0.434,0.762,0.716,�k��,5.5,��
